College Park, MD

5:25 PM EST on December 03, 2016 (GMT -0500)
College Park

Weather History for KCGS - January, 2013

Change the Weather History Date:

Wednesday, January 16, 2013

  Actual Average Record
Temperature  
Mean Temperature 40 °F -  
Max Temperature 44 °F 40 °F 70 °F (1952)
Min Temperature 37 °F 22 °F 0 °F (1964)
Degree Days  
Heating Degree Days 24    
Moisture  
Dew Point 40 °F    
Average Humidity 98    
Maximum Humidity 100    
Minimum Humidity 93    
Precipitation  
Precipitation 0.00 in - - ()
Sea Level Pressure  
Sea Level Pressure 30.03 in    
Wind  
Wind Speed 2 mph (NW)    
Max Wind Speed 13 mph    
Max Gust Speed -    
Visibility 8 miles    
Events      
Averages and records for this station are not official NWS values.
T = Trace of Precipitation, MM = Missing Value Source: NWS Daily Summary

Daily Weather History Graph

Daily Weather History Graph

Search for Another Location

Airport or City:

Trip Planner

Search our weather history database for the weather conditions in past years. The results will help you decide how hot, cold, wet, or windy it might be!

Date:

Astronomy

Jan. 16, 2013 Rise Set
Actual Time 7:24 AM EST 5:10 PM EST
Civil Twilight 6:55 AM EST 5:40 PM EST
Nautical Twilight 6:22 AM EST 6:12 PM EST
Astronomical Twilight 5:50 AM EST 6:44 PM EST
Moon 10:03 AM EST (1/16) 10:56 PM EST (1/16)
Length of Visible Light 10h 44m
Length of Day
9h 46m
Waxing Crescent, 28% of the Moon is Illuminated
Jan 16
Waxing Crescent
Jan 18
First Quarter
Jan 26
Full
Feb 3
Last Quarter
Feb 10
New

Hourly Weather History & Observations

Time (EST) Temp. Windchill Dew Point Humidity Pressure Visibility Wind Dir Wind Speed Gust Speed Precip Events Conditions
12:00 AM 37.8 °F 35.3 °F 37.8 °F 100% 30.16 in 4.0 mi NE 3.5 mph - N/A   Overcast
12:20 AM 37.8 °F 33.3 °F 37.8 °F 100% 30.16 in 3.0 mi NE 5.8 mph - N/A   Overcast
12:40 AM 37.4 °F 33.8 °F 37.4 °F 100% 30.15 in 5.0 mi NNE 4.6 mph - N/A   Overcast
1:05 AM 37.4 °F - 37.4 °F 100% 30.13 in 2.5 mi Calm Calm - N/A   Overcast
1:25 AM 37.4 °F 34.9 °F 37.4 °F 100% 30.14 in 2.5 mi North 3.5 mph - N/A   Overcast
1:45 AM 37.0 °F 34.5 °F 37.0 °F 100% 30.13 in 2.5 mi North 3.5 mph - N/A   Overcast
2:05 AM 37.0 °F 34.5 °F 37.0 °F 100% 30.13 in 3.0 mi NNE 3.5 mph - N/A   Overcast
2:30 AM 37.4 °F 33.8 °F 37.4 °F 100% 30.16 in 3.0 mi North 4.6 mph - N/A   Overcast
2:50 AM 37.4 °F - 37.4 °F 100% 30.15 in 3.0 mi Calm Calm - N/A   Overcast
3:10 AM 37.4 °F 34.9 °F 37.4 °F 100% 30.15 in 3.0 mi North 3.5 mph - N/A   Overcast
3:35 AM 37.0 °F - 37.0 °F 100% 30.11 in 5.0 mi Calm Calm - N/A   Overcast
3:55 AM 37.0 °F 33.3 °F 37.0 °F 100% 30.11 in 7.0 mi NNE 4.6 mph - N/A   Overcast
4:15 AM 37.0 °F - 37.0 °F 100% 30.09 in 10.0 mi Calm Calm - N/A   Overcast
5:20 AM 37.0 °F - 37.0 °F 100% - 10.0 mi Calm Calm - N/A   Overcast
5:40 AM 37.4 °F - 37.2 °F 99% 30.06 in 10.0 mi Calm Calm - N/A   Overcast
6:00 AM 37.4 °F - 37.4 °F 100% 30.07 in 10.0 mi Calm Calm - N/A   Overcast
6:45 AM 37.4 °F 34.9 °F 37.4 °F 100% 30.08 in 7.0 mi North 3.5 mph - N/A   Overcast
7:05 AM 37.6 °F - 37.4 °F 99% 30.05 in 7.0 mi Calm Calm - N/A   Overcast
7:25 AM 37.6 °F - 37.4 °F 99% 30.05 in 10.0 mi Calm Calm - N/A   Overcast
7:50 AM 37.9 °F - 37.4 °F 98% 30.06 in 7.0 mi Calm Calm - N/A   Overcast
8:10 AM 37.9 °F - 37.9 °F 100% 30.05 in 4.0 mi Calm Calm - N/A   Overcast
8:30 AM 37.9 °F - 37.8 °F 99% 30.04 in 5.0 mi Calm Calm - N/A   Overcast
8:50 AM 38.3 °F - 37.9 °F 99% 30.06 in 5.0 mi Calm Calm - N/A   Overcast
9:15 AM 38.3 °F - 37.9 °F 99% 30.06 in 5.0 mi Calm Calm - N/A   Overcast
9:35 AM 38.7 °F - 38.3 °F 99% 30.05 in 4.0 mi Calm Calm - N/A   Overcast
9:55 AM 39.0 °F 36.8 °F 38.5 °F 98% 30.04 in 5.0 mi SSE 3.5 mph - N/A   Overcast
10:15 AM 39.4 °F 37.2 °F 38.7 °F 97% 30.03 in 7.0 mi South 3.5 mph - N/A   Overcast
10:40 AM 40.1 °F 36.9 °F 39.4 °F 97% 30.04 in 5.0 mi WSW 4.6 mph - N/A   Overcast
11:00 AM 41.0 °F 38.0 °F 40.5 °F 98% 30.02 in 5.0 mi South 4.6 mph - N/A   Overcast
11:20 AM 41.0 °F - 39.9 °F 96% 30.01 in 7.0 mi Calm Calm - N/A   Overcast
11:40 AM 41.0 °F 38.0 °F 39.6 °F 95% 29.97 in 10.0 mi South 4.6 mph - N/A   Overcast
12:05 PM 41.0 °F 35.2 °F 39.7 °F 95% 29.91 in 7.0 mi South 9.2 mph - N/A   Overcast
12:25 PM 41.0 °F 35.2 °F 40.1 °F 97% 29.89 in 10.0 mi South 9.2 mph - N/A   Overcast
12:45 PM 41.4 °F 39.4 °F 40.1 °F 95% 29.89 in 10.0 mi SSW 3.5 mph - N/A   Overcast
1:05 PM 41.5 °F 39.6 °F 40.1 °F 95% 29.87 in 10.0 mi SSW 3.5 mph - N/A   Overcast
2:05 PM 42.4 °F 35.7 °F 41.0 °F 95% 29.95 in 10.0 mi WNW 12.7 mph - N/A   Overcast
2:30 PM 42.3 °F 39.4 °F 41.0 °F 95% 29.92 in 10.0 mi NW 4.6 mph - N/A   Overcast
2:55 PM 42.3 °F 39.4 °F 41.0 °F 95% 29.96 in 10.0 mi WNW 4.6 mph - N/A   Overcast
3:30 PM 42.3 °F 39.4 °F 41.0 °F 95% 29.97 in 10.0 mi WNW 4.6 mph - N/A   Overcast
3:50 PM 42.4 °F - 40.8 °F 94% 29.94 in 10.0 mi Calm Calm - N/A   Overcast
4:35 PM 42.8 °F - 41.4 °F 95% 29.97 in 10.0 mi Calm Calm - N/A   Overcast
4:55 PM 42.8 °F - 41.7 °F 96% 29.95 in 10.0 mi Calm Calm - N/A   Mostly Cloudy
5:15 PM 42.8 °F - 41.9 °F 97% 29.97 in 10.0 mi Calm Calm - N/A   Mostly Cloudy
5:40 PM 43.0 °F - 41.9 °F 96% 29.98 in 10.0 mi Calm Calm - N/A   Overcast
6:20 PM 43.0 °F - 41.7 °F 95% 29.99 in 10.0 mi Calm Calm - N/A   Overcast
6:40 PM 43.2 °F - 41.7 °F 95% 29.98 in 10.0 mi Calm Calm - N/A   Mostly Cloudy
7:05 PM 42.8 °F - 42.4 °F 99% 29.99 in 10.0 mi Calm Calm - N/A   Clear
7:25 PM 43.0 °F - 42.3 °F 97% 30.00 in 10.0 mi Calm Calm - N/A   Mostly Cloudy
7:45 PM 43.5 °F - 42.1 °F 95% 29.99 in 10.0 mi Calm Calm - N/A   Overcast
8:05 PM 43.7 °F - 42.1 °F 94% 29.99 in 10.0 mi Calm Calm - N/A   Overcast
8:30 PM 43.7 °F - 41.9 °F 93% 29.99 in 10.0 mi Calm Calm - N/A   Overcast
8:50 PM 43.9 °F - 42.3 °F 94% 29.99 in 10.0 mi Calm Calm - N/A   Overcast
9:10 PM 43.9 °F - 42.8 °F 96% 29.98 in 10.0 mi Calm Calm - N/A   Overcast
9:30 PM 43.2 °F - 43.2 °F 100% 29.98 in 7.0 mi Calm Calm - N/A   Overcast
9:55 PM 43.7 °F - 43.7 °F 100% 29.98 in 10.0 mi Calm Calm - N/A   Overcast
10:15 PM 43.9 °F - 43.9 °F 100% 30.00 in 10.0 mi Calm Calm - N/A   Overcast
10:35 PM 44.1 °F - 43.7 °F 99% 29.99 in 10.0 mi Calm Calm - N/A   Overcast
10:55 PM 43.9 °F - 43.9 °F 100% 29.98 in 7.0 mi Calm Calm - N/A   Overcast
11:20 PM 43.7 °F - 43.7 °F 100% 30.00 in 7.0 mi Calm Calm - N/A   Overcast
11:40 PM 43.7 °F - 43.7 °F 100% 29.99 in 5.0 mi Calm Calm - N/A   Overcast